Regional Weather Roundup
Issued by NWS

Home | Current Version | Previous Version | Text Only | Print | Product List | Glossary On
Versions: 1 2 3 4 5 6 7 8 9 10 11 12 13 14 15 16 17 18 19 20 21 22 23 24 25 26 27 28 29 30 31 32 33 34 35 36 37 38 39 40 41 42 43 44 45 46 47 48 49 50
925
ASUS43 KLMK 171810
RWRKY
KENTUCKY REGIONAL WEATHER ROUNDUP
NATIONAL WEATHER SERVICE LOUISVILLE KY
100 PM EST TUE JAN 17 2017

NOTE "FAIR" INDICATES FEW OR NO CLOUDS BELOW 12,000 FEET
WITH NO SIGNIFICANT WEATHER AND/OR OBSTRUCTIONS TO VISIBILITY.

KYZ001>023-026-027-061>063-070>075-171900-
WESTERN AND SOUTH CENTRAL KENTUCKY

CITY           SKY/WX    TMP DP  RH WIND       PRES   REMARKS
PADUCAH        PTSUNNY   50  40  68 W16G22    30.04F
HENDERSON      CLOUDY    50  43  76 W12       30.01S
OWENSBORO      CLOUDY    52  47  83 NW10      30.01F
HOPKINSVILLE   CLOUDY    57  49  74 SW15      30.01F
BOWLING GREEN  CLOUDY    63  50  62 W17G32    30.02F
GLASGOW        PTSUNNY   62  52  69 W16G25    30.01S
$$

KYZ024-025-028>034-038-045-046-053-171900-
NORTH CENTRAL KENTUCKY

CITY           SKY/WX    TMP DP  RH WIND       PRES   REMARKS
LOUISVILLE/SDF CLOUDY    63  50  62 W18G24    29.94F
LOUISVILLE/LOU PTSUNNY   62  48  60 SW16G24   29.95S
FORT KNOX      PTSUNNY   59  50  72 SW18G26   29.94F
$$

KYZ035>037-039>044-047>052-055>060-089>105-171900-
NORTHEAST KENTUCKY

CITY           SKY/WX    TMP DP  RH WIND       PRES   REMARKS
LEXINGTON      CLOUDY    65  58  78 S28G37    29.91F
COVINGTON      CLOUDY    58  52  80 W15G24    29.90F
FRANKFORT      PTSUNNY   64  54  69 SW16G26   29.92F
$$

KYZ054-064>069-076>088-106>120-171900-
SOUTHEAST KENTUCKY

CITY           SKY/WX    TMP DP  RH WIND       PRES   REMARKS
JACKSON        CLOUDY    62  56  80 MISG      29.98F
LONDON         CLOUDY    60  56  86 S10       30.00F
SOMERSET       CLOUDY    59  59 100 S6        30.01F
MIDDLESBORO    DRIZZLE   60  57  89 SW10G17   30.06F
MONTICELLO     LGT RAIN  63  60  90 SW17G26   30.02F
$$





USA.gov is the U.S. government's official web portal to all federal, state and local government web resources and services.